LUCH-5B

Last updated on Tue Mar 03 2026 00:02:51 GMT+0000 (Coordinated Universal Time)

1 38977U 12061A 26061.56879604 -.00000149 00000+0 00000+0 0 9997 2 38977 10.2544 50.9217 0004477 221.7123 76.1623 1.00271410 48537
UTC large
Height (km)
Speed (km/s)
/
Latitude / Longitude
Inclination (degrees)
Orbital Period (minutes)
Azimuth
Elevation
Range (km)
Doppler Factor

Next 0 passes for location: London (51.5072 / 0.1276)

Sorry there are no passes over London.